Date String (YYYY-MM-DD hh:mm:ss) UTC,Instrument flags,Ambient pressure (hPa),Sample flow (lpm),Bypass flow (lpm),Sample temperature (°C),Ambient temperature (°C),ASC tube jacket temperature (°C),LED temperature (°C),Box temperature (°C),Sample RH (%),Span deviation,Mass concentration (μg/m³),Mass concentration (μg/m³),Mass concentration (μg/m³)
DateTimeUTC,F1_M11,P_M11,Q1_M11,Q2_M11,T1_M11,T2_M11,T3_M11,T4_M11,T5_M11,U1_M11,ZSPAN_M11,X0_M11,X2_M11,X1_M11
2022-01-18 12:00:00,,0818.4,4.99,0.00,23.8,23.1,00.0,32.8,25.6,04.8,0000.0,0000.59,0000.44,0000.41
2022-01-18 12:01:00,,0818.4,5.02,0.00,23.9,23.1,00.0,32.8,25.5,04.9,0000.0,0000.54,0000.43,0000.41
2022-01-18 12:02:00,,0818.4,4.98,0.00,23.8,23.1,00.0,32.8,25.6,04.8,0000.0,0000.53,0000.42,0000.40
2022-01-18 12:03:00,,0818.4,5.01,0.00,23.8,23.1,00.0,32.8,25.5,04.7,0000.0,0000.53,0000.42,0000.39
2022-01-18 12:04:00,,0818.4,5.00,0.00,23.8,23.1,00.0,32.8,25.5,04.7,0000.0,0000.53,0000.40,0000.37
2022-01-18 12:05:00,,0818.4,5.01,0.00,23.8,23.1,00.0,32.8,25.5,04.6,0000.0,0000.58,0000.41,0000.35
2022-01-18 12:06:00,,0818.4,4.99,0.00,23.8,23.1,00.0,32.8,25.6,04.8,0000.0,0000.61,0000.42,0000.34
2022-01-18 12:07:00,,0818.4,5.01,0.00,23.8,23.1,00.0,32.8,25.6,04.8,0000.0,0000.63,0000.42,0000.32
2022-01-18 12:08:00,,0818.5,5.00,0.00,23.9,23.1,00.0,32.8,25.6,04.8,0000.0,0000.59,0000.40,0000.32
2022-01-18 12:09:00,,0818.6,5.00,0.00,23.9,23.1,00.0,32.8,25.6,05.7,0000.0,0000.58,0000.40,0000.32
2022-01-18 12:10:00,,0818.7,5.00,0.00,23.8,23.1,00.0,32.8,25.5,06.1,0000.0,0000.61,0000.42,0000.34
2022-01-18 12:11:00,,0818.6,4.99,0.00,23.8,23.1,00.0,32.8,25.5,06.3,0000.0,0000.63,0000.44,0000.36
2022-01-18 12:12:00,,0818.5,5.01,0.00,23.8,23.1,00.0,32.9,25.5,06.0,0000.0,0000.67,0000.47,0000.38
2022-01-18 12:13:00,,0818.4,4.99,0.00,23.8,23.1,00.0,32.8,25.5,05.6,0000.0,0000.69,0000.48,0000.40
2022-01-18 12:14:00,,0818.5,5.01,0.00,23.8,23.1,00.0,32.8,25.5,05.9,0000.0,0000.70,0000.50,0000.41
2022-01-18 12:15:00,,0818.4,5.00,0.00,23.8,23.1,00.0,32.9,25.5,05.9,0000.0,0000.77,0000.54,0000.44
2022-01-18 12:16:00,,0818.4,4.98,0.00,23.8,23.1,00.0,32.8,25.5,05.3,0000.0,0000.74,0000.54,0000.45
2022-01-18 12:17:00,,0818.4,5.01,0.00,23.8,23.1,00.0,32.8,25.5,05.4,0000.0,0000.71,0000.53,0000.46
2022-01-18 12:18:00,,0818.4,4.99,0.00,23.8,23.1,00.0,32.8,25.5,05.0,0000.0,0000.66,0000.51,0000.46
2022-01-18 12:19:00,,0818.4,5.01,0.00,23.8,23.0,00.0,32.8,25.5,05.2,0000.0,0000.71,0000.52,0000.46
2022-01-18 12:20:00,,0818.4,5.00,0.00,23.8,23.0,00.0,32.8,25.5,05.4,0000.0,0000.80,0000.53,0000.46
2022-01-18 12:21:00,,0818.5,5.00,0.00,23.8,23.0,00.0,32.8,25.5,05.3,0000.0,0000.84,0000.54,0000.46
2022-01-18 12:22:00,,0818.5,5.01,0.00,23.8,23.0,00.0,32.8,25.5,05.9,0000.0,0000.87,0000.55,0000.45
2022-01-18 12:23:00,,0818.4,4.99,0.00,23.8,23.0,00.0,32.8,25.5,06.3,0000.0,0000.84,0000.52,0000.43
2022-01-18 12:24:00,,0818.3,5.00,0.00,23.8,23.0,00.0,32.8,25.5,05.6,0000.0,0000.81,0000.50,0000.42
2022-01-18 12:25:00,,0818.4,5.02,0.00,23.8,23.0,00.0,32.8,25.5,05.0,0000.0,0000.85,0000.50,0000.40
2022-01-18 12:26:00,,0818.3,4.99,0.00,23.8,23.0,00.0,32.8,25.5,04.9,0000.0,0000.76,0000.46,0000.38
2022-01-18 12:27:00,,0818.3,5.01,0.00,23.8,23.0,00.0,32.8,25.5,04.9,0000.0,0000.74,0000.45,0000.37
2022-01-18 12:28:00,,0818.3,4.99,0.00,23.8,22.9,00.0,32.8,25.5,05.1,0000.0,0000.74,0000.44,0000.36
2022-01-18 12:29:00,,0818.3,5.01,0.00,23.7,22.9,00.0,32.8,25.4,04.8,0000.0,0000.76,0000.44,0000.36
2022-01-18 12:30:00,,0818.4,4.99,0.00,23.7,22.9,00.0,32.8,25.4,04.7,0000.0,0000.72,0000.44,0000.36
2022-01-18 12:31:00,,0818.4,5.01,0.00,23.7,22.9,00.0,32.8,25.4,04.7,0000.0,0000.63,0000.42,0000.35
2022-01-18 12:32:00,,0818.3,5.00,0.00,23.7,22.9,00.0,32.8,25.4,05.0,0000.0,0000.56,0000.39,0000.33
2022-01-18 12:33:00,,0818.4,5.01,0.00,23.7,22.9,00.0,32.8,25.4,05.0,0000.0,0000.50,0000.36,0000.32
2022-01-18 12:34:00,,0818.4,4.99,0.00,23.7,22.9,00.0,32.8,25.4,04.8,0000.0,0000.53,0000.36,0000.31
2022-01-18 12:35:00,,0818.5,5.00,0.00,23.7,22.9,00.0,32.8,25.4,04.9,0000.0,0000.54,0000.37,0000.31
2022-01-18 12:36:00,,0818.4,5.00,0.00,23.7,22.9,00.0,32.8,25.4,05.0,0000.0,0000.53,0000.37,0000.31
2022-01-18 12:37:00,,0818.4,4.99,0.00,23.7,22.9,00.0,32.8,25.5,05.0,0000.0,0000.58,0000.39,0000.31
2022-01-18 12:38:00,,0818.4,5.01,0.00,23.7,22.9,00.0,32.8,25.5,05.1,0000.0,0000.57,0000.38,0000.30
2022-01-18 12:39:00,,0818.4,4.98,0.00,23.7,22.9,00.0,32.8,25.5,05.0,0000.0,0000.55,0000.38,0000.30
2022-01-18 12:40:00,,0818.4,5.01,0.00,23.7,22.9,00.0,32.8,25.5,04.8,0000.0,0000.52,0000.37,0000.30
2022-01-18 12:41:00,,0818.5,5.01,0.00,23.7,22.9,00.0,32.8,25.5,05.1,0000.0,0000.55,0000.38,0000.30
2022-01-18 12:42:00,,0818.5,4.99,0.00,23.7,22.9,00.0,32.8,25.5,05.3,0000.0,0000.56,0000.39,0000.31
2022-01-18 12:43:00,,0818.5,5.01,0.00,23.7,22.9,00.0,32.8,25.5,05.9,0000.0,0000.58,0000.40,0000.32
2022-01-18 12:44:00,,0818.7,5.00,0.00,23.7,22.9,00.0,32.8,25.5,06.1,0000.0,0000.63,0000.44,0000.35
2022-01-18 12:45:00,,0818.6,4.99,0.00,23.7,22.9,00.0,32.8,25.5,06.2,0000.0,0000.68,0000.47,0000.38
2022-01-18 12:46:00,,0818.5,5.01,0.00,23.7,22.9,00.0,32.8,25.5,06.3,0000.0,0000.70,0000.49,0000.40
2022-01-18 12:47:00,,0818.6,5.00,0.00,23.7,22.9,00.0,32.8,25.5,06.4,0000.0,0000.70,0000.51,0000.43
2022-01-18 12:48:00,,0818.5,4.99,0.00,23.7,22.9,00.0,32.8,25.5,06.2,0000.0,0000.70,0000.52,0000.46
2022-01-18 12:49:00,,0818.5,5.00,0.00,23.7,22.9,00.0,32.8,25.5,05.1,0000.0,0000.73,0000.54,0000.47
2022-01-18 12:50:00,,0818.5,4.99,0.00,23.7,23.0,00.0,32.8,25.5,04.8,0000.0,0000.88,0000.54,0000.47
2022-01-18 12:51:00,,0818.5,5.00,0.00,23.7,23.0,00.0,32.8,25.5,04.6,0000.0,0001.46,0000.54,0000.47
2022-01-18 12:52:00,,0818.5,4.99,0.00,23.7,22.9,00.0,32.8,25.5,04.7,0000.0,0001.42,0000.52,0000.47
2022-01-18 12:53:00,,0818.6,5.00,0.00,23.7,22.9,00.0,32.8,25.5,05.0,0000.0,0001.41,0000.52,0000.46
2022-01-18 12:54:00,,0818.6,5.02,0.00,23.7,22.9,00.0,32.8,25.5,05.3,0000.0,0001.41,0000.52,0000.46
2022-01-18 12:55:00,,0818.6,5.00,0.00,23.7,22.9,00.0,32.8,25.5,04.9,0000.0,0001.36,0000.48,0000.43
2022-01-18 12:56:00,,0818.7,4.99,0.00,23.7,22.9,00.0,32.8,25.5,04.6,0000.0,0001.26,0000.43,0000.40
2022-01-18 12:57:00,,0818.8,5.00,0.00,23.7,22.9,00.0,32.8,25.5,04.9,0000.0,0001.22,0000.40,0000.37
2022-01-18 12:58:00,,0818.8,4.98,0.00,23.7,22.9,00.0,32.8,25.5,05.0,0000.0,0001.19,0000.36,0000.33
2022-01-18 12:59:00,,0818.8,5.01,0.00,23.8,22.9,00.0,32.7,25.5,05.1,0000.0,0001.15,0000.33,0000.31
